CAPE
1934 2241 2184 2205 2228 2060 1896 1903 2428 1936 1445 1287 925 880 470 580 500 296 165 56 0 0
2652 2416 2183 2064 2112 1951 2645 2353 2366 1837 1185 1101 865 657 676 292 321 229 74 0 0 0
2828 2676 2583 2526 2975 2041 2404 2723 2255 1615 1118 919 858 659 814 274 275 62 0 0 0 0
2691 2938 2564 2851 2503 2687 3052 2667 2312 1689 1129 1007 880 691 758 422 135 10 0 0 0 0
2656 2912 2848 2388 2842 3061 3149 2915 2483 1882 1263 1174 933 671 580 267 64 7 0 0 0 0
2713 2832 2800 2899 2770 3269 3363 2916 2539 1910 1280 1136 932 684 409 151 72 0 0 0 0 0
2603 2717 2731 2853 2802 3238 3300 2942 2456 1766 1557 1269 1070 507 329 76 36 0 0 0 0 0
2581 2822 2866 2698 2951 3342 3275 2947 2309 1366 1156 694 682 494 339 102 0 0 0 0 0 0
2852 3108 3052 3069 2925 2509 2326 1871 1502 638 224 578 217 255 301 135 0 0 0 0 0 0
3240 3534 3403 1821 1180 1010 781 197 88 390 144 290 0 69 86 71 0 0 0 0 0 0
3710 2974 1801 1616 1400 909 604 11 38 230 80 2 2 12 7 0 0 0 0 0 0 0
2677 1994 1762 1851 1550 899 93 0 83 524 222 4 0 0 0 0 0 0 0 0 0 0
2313 1956 1843 1185 731 432 39 64 86 112 39 0 0 0 0 0 0 0 0 0 0 0
2084 1595 1199 895 751 536 215 708 615 152 0 0 0 0 0 0 0 0 0 0 0 0
CIN
-65 -39 -28 -18 -13 -13 -20 -35 -33 -26 -19 -18 -27 -22 -98 -61 -82 -123 -160 -222 0 0
-68 -66 -41 -36 -23 -17 -7 -26 -21 -46 -60 -58 -67 -80 -68 -152 -155 -172 -236 0 0 0
-69 -80 -60 -36 -18 -33 -3 -13 -51 -82 -91 -102 -97 -110 -70 -174 -173 -218 0 0 0 0
-81 -84 -81 -52 -47 -37 -7 -42 -68 -88 -118 -122 -121 -108 -63 -171 -292 -175 0 0 0 0
-84 -82 -81 -89 -62 -46 -16 -43 -65 -58 -76 -41 -34 -49 -64 -187 -313 -213 0 0 0 0
-75 -71 -74 -83 -75 -34 -18 -42 -51 -74 -103 -75 -69 -129 -101 -202 -226 0 0 0 0 0
-108 -87 -77 -67 -74 -44 -35 -30 -20 -39 -22 -32 -22 -73 -76 -152 -202 0 0 0 0 0
-124 -112 -78 -60 -39 -7 -2 -3 -6 -29 -17 -4 -3 -4 -30 -84 0 0 0 0 0 0
-106 -71 -45 -18 -1 -20 -6 -6 -11 -111 -193 -62 -117 -16 -14 -31 0 0 0 0 0 0
-56 -7 -4 -148 -214 -255 -243 -370 -42 -43 -197 -63 0 -130 -37 -23 -34 0 0 0 0 0
-10 -83 -210 -201 -222 -329 -413 -142 -289 -351 -290 -41 -16 -35 -60 -24 0 0 0 0 0 0
-170 -220 -229 -204 -244 -344 -606 0 -517 -251 -190 -303 0 0 0 0 0 0 0 0 0 0
-197 -212 -200 -280 -400 -496 -642 -615 -523 -407 -396 0 0 0 0 0 0 0 0 0 0 0
-167 -197 -249 -325 -341 -370 -494 -240 -216 -336 -214 0 0 0 0 0 0 0 0 0 0 0
Wind_Speed
17 15 12 11 11 10 11 11 13 14 15 16 16 16 16 19 18 20 21 22 22 23
15 16 13 13 10 9 13 12 12 14 14 14 14 15 15 17 18 19 20 22 23 25
16 16 16 12 9 8 7 9 10 11 12 11 12 12 13 14 17 19 21 22 23 24
16 16 16 15 11 7 6 7 7 8 8 9 9 10 14 15 15 17 18 20 21 23
16 16 14 14 9 5 3 4 5 6 6 7 7 9 11 10 12 14 16 17 19 22
17 14 12 11 11 6 5 3 3 2 2 3 3 5 8 10 11 14 15 16 17 19
17 16 14 11 10 9 6 3 1 3 4 6 5 6 7 8 11 13 14 15 15 17
16 14 12 11 8 5 2 1 2 4 8 14 20 9 7 8 9 10 12 14 14 15
11 9 7 2 1 6 5 6 5 6 14 13 14 26 8 6 9 11 11 12 13 13
5 2 2 5 6 6 9 12 29 16 15 13 14 19 6 7 10 11 8 9 12 15
2 2 2 2 1 2 1 6 14 9 5 5 5 3 2 4 5 6 6 9 13 16
2 1 1 1 2 0 5 12 12 11 5 5 5 8 7 6 5 5 6 9 11 13
3 2 2 2 3 9 12 16 13 10 7 6 5 6 10 10 7 6 7 8 10 12
4 3 5 7 8 11 16 13 10 9 8 6 7 8 9 8 7 6 6 6 8 9
Wind_Direction
171 168 158 148 149 137 100 71 65 61 47 36 50 38 50 39 48 37 36 29 26 19
163 169 165 165 147 139 33 50 61 46 47 57 49 56 52 40 34 36 37 32 24 19
170 171 173 164 145 140 99 77 71 58 68 63 58 54 54 44 37 23 21 25 21 16
173 173 175 175 164 140 81 76 70 66 71 73 65 53 27 38 33 30 22 21 21 22
173 174 173 177 169 147 109 69 58 56 56 47 35 29 22 31 28 23 17 19 18 13
178 175 175 173 172 157 146 118 64 51 24 20 20 16 13 12 10 13 9 13 15 21
178 181 180 175 172 171 164 141 58 8 331 310 319 340 352 3 1 4 9 8 15 20
177 176 177 180 178 162 123 61 38 5 350 328 318 323 337 346 357 13 18 5 3 12
174 173 179 197 358 355 359 342 332 334 349 347 5 286 327 351 356 358 358 354 359 5
174 196 317 353 354 359 18 16 10 349 336 318 325 284 291 337 339 349 357 1 358 356
204 319 346 9 52 11 115 6 345 358 344 353 33 89 128 32 15 37 18 6 355 356
237 209 174 244 218 234 346 347 353 11 40 80 44 123 133 105 69 39 45 30 16 11
271 238 234 239 320 336 346 349 359 8 38 88 96 110 132 116 68 64 47 41 31 25
312 324 326 324 329 338 341 350 16 34 39 80 103 109 123 88 72 51 58 57 48 47